Location: Treviso
(45.6669°N, 12.2430°E)
Time: 08:39:18
(UTC+02:00)

NOAA 15 - Pass Details

Date: 30 April 2019
Orbit: 798 x 812 km, 98.7° (Epoch: 22 May)

Event Time Altitude Azimuth Distance (km) Brightness Sun altitude
Rises 21:01:28 0° 217° (SW) 3,293 7.9 -7.9°
Reaches altitude 10° 21:05:10 10° 245° (WSW) 2,370 7.5 -8.4°
Maximum altitude 21:07:34 13° 272° (W) 2,159 7.8 -8.8°
Drops below altitude 10° 21:09:59 10° 300° (WNW) 2,379 8.8 -9.1°
Sets 21:13:43 0° 327° (NNW) 3,318 9.2 -9.7°
